This demonstration page uses our WeatherBlox Daily Observations layout. Learn more.

Left ArrowRight Arrow

39.08367, -84.50855

Hourly Observations for February 27, 2016

Temp ( °F °C ) Dew Point ( °F °C ) Humidity (%) Winds ( mph kmh ) Pressure ( in mb ) Visibility ( mi km ) Precip ( " mm )
12:53 am 00:53 Cloudy 34 1.1 25 -3.9 70 70 N 7 11 30.22 1024 10 16 N/A
1:53 am 01:53 Cloudy 34 1.1 24 -4.4 67 67 NW 3 6 30.22 1023 10 16 N/A
2:53 am 02:53 Cloudy 33 0.6 24 -4.4 70 70 NW 5 7 30.22 1023 10 16 N/A
3:53 am 03:53 Cloudy 33 0.6 23 -5 66 66 WNW 5 7 30.22 1023 10 16 N/A
4:53 am 04:53 Cloudy 33 0.6 23 -5 66 66 W 8 13 30.21 1023 10 16 N/A
5:53 am 05:53 Cloudy 33 0.6 24 -4.4 70 70 W 6 9 30.21 1023 10 16 N/A
6:53 am 06:53 Mostly Clear 30 -1.1 22 -5.6 72 72 W 7 11 30.21 1023 10 16 N/A
7:53 am 07:53 Sunny 30 -1.1 24 -4.4 79 79 SW 6 9 30.23 1024 10 16 N/A
8:53 am 08:53 Sunny 34 1.1 24 -4.4 67 67 SW 9 15 30.23 1024 10 16 N/A
9:53 am 09:53 Sunny 36 2.2 23 -5 59 59 SSW 12 19 30.22 1023 10 16 N/A
10:53 am 10:53 Sunny 39 3.9 26 -3.3 60 60 SSW 9 15 30.20 1023 10 16 N/A
11:53 am 11:53 Sunny 43 6.1 29 -1.7 58 58 SSW 10 17 30.18 1022 10 16 N/A
12:53 pm 12:53 Sunny 46 7.8 29 -1.7 51 51 SSW 13 20 30.15 1021 10 16 N/A
1:53 pm 13:53 Sunny 49 9.4 29 -1.7 46 46 SW 14 22 30.11 1020 10 16 N/A
2:53 pm 14:53 Sunny 50 10 29 -1.7 44 44 SW 18 30 30.09 1019 10 16 N/A
3:53 pm 15:53 Sunny 51 10.6 31 -0.6 46 46 SSW 16 26 30.07 1018 10 16 N/A
4:53 pm 16:53 Sunny 51 10.6 31 -0.6 46 46 SW 13 20 30.06 1018 10 16 N/A
5:53 pm 17:53 Sunny 50 10 31 -0.6 48 48 SSW 12 19 30.06 1018 10 16 N/A
6:53 pm 18:53 Clear 47 8.3 32 undefined 56 56 SSW 12 19 30.05 1018 10 16 N/A
7:53 pm 19:53 Clear 46 7.8 32 undefined 58 58 SSW 10 17 30.05 1018 10 16 N/A
8:53 pm 20:53 Clear 43 6.1 32 undefined 65 65 SSW 8 13 30.05 1018 10 16 N/A
9:53 pm 21:53 Clear 41 5 32 undefined 70 70 S 9 15 30.04 1017 10 16 N/A
10:53 pm 22:53 Clear 40 4.4 32 undefined 73 73 SSW 5 7 30.04 1017 10 16 N/A
11:53 pm 23:53 Clear 39 3.9 31 -0.6 73 73 W 3 6 30.03 1017 10 16 N/A

Powered by AerisWeather